Location: Payette
(44.0782°N, 116.9338°W)
Time: 09:00:08
(UTC-06:00)

N. Korean satellite - Visible Passes

Search period start: 20 October 2019 00:00
Search period end: 30 October 2019 00:00
Orbit: 455 x 508 km, 97.2° (Epoch: 20 October)

Date Brightness Start Highest point End Pass type
(mag) Time Alt. Az. Time Alt. Az. Time Alt. Az.
20 Oct 10.2 06:42:26 10° ENE 06:44:17 13° E 06:46:09 10° ESE visible
21 Oct 10.2 20:01:20 10° WSW 20:02:50 12° W 20:04:21 10° WNW visible
22 Oct 8.1 07:23:49 10° NNE 07:27:18 43° E 07:30:49 10° S visible
22 Oct 9.2 19:34:28 10° SSW 19:37:20 25° W 19:40:14 10° NW visible
23 Oct 9.5 06:59:01 10° NE 07:01:54 21° E 07:04:47 10° SE visible
24 Oct 10.4 06:35:17 10° ENE 06:36:23 11° E 06:37:30 10° ESE visible
25 Oct 6.9 07:41:08 10° NNE 07:44:48 74° ESE 07:48:29 10° S visible
25 Oct 10.0 19:52:46 10° SW 19:54:53 15° W 19:57:02 10° NW visible
26 Oct 8.5 07:16:03 10° NNE 07:19:26 35° E 07:22:50 10° SSE visible
26 Oct 8.7 19:26:19 10° SSW 19:29:24 31° W 19:32:33 10° NNW visible
27 Oct 9.8 06:51:24 10° NE 06:53:59 18° E 06:56:34 10° SE visible
29 Oct 7.4 07:33:15 10° NNE 07:36:55 59° E 07:40:34 10° S visible
29 Oct 9.7 19:44:21 10° SW 19:46:54 19° W 19:49:30 10° NW visible
